GFSNW_con_lsi_222.txt.gz
Lid_Strength_Index
-0 -0 0 0 0 2 4 8 11 6 6 13 13 15 13 11 13 12 13 12 13 14 15 16 16 16 14 12 12 14 13 15 17 16 14 13 13 14 14 16 17 16 16 15
0 -0 -0 -0 1 2 5 9 10 6 7 14 15 13 13 13 12 12 13 14 12 12 14 16 14 14 12 11 12 13 13 15 18 18 16 15 15 14 13 14 15 17 17 15
0 0 -0 -0 1 2 4 9 13 10 8 10 12 13 13 13 11 11 11 12 11 13 14 13 14 14 12 11 11 11 12 14 16 19 17 15 16 15 14 14 16 15 15 13
1 0 -0 -0 1 2 5 8 11 10 14 12 12 11 12 13 13 11 10 12 12 12 14 14 14 12 12 11 11 11 12 15 15 14 15 15 15 15 15 15 14 15 13 13
0 0 0 0 0 2 5 9 10 10 11 10 12 11 13 13 12 12 13 13 12 12 13 12 14 12 13 13 12 12 12 15 14 16 14 14 16 14 14 14 14 14 13 13
1 1 0 0 1 2 7 7 7 8 10 11 12 12 12 11 10 11 10 11 12 12 11 10 10 11 11 11 12 12 13 14 16 18 16 16 18 16 14 13 12 13 15 12
1 1 1 0 0 2 4 6 7 10 12 11 12 10 10 11 10 11 11 10 11 11 9 10 11 12 11 12 11 11 14 14 15 17 17 21 16 14 13 15 17 16 15 14
1 0 -0 -1 -1 1 5 5 7 9 12 11 12 11 10 10 10 11 11 11 11 10 11 13 15 15 15 14 13 13 12 14 16 18 18 16 15 15 15 15 18 17 16 14
0 -1 -1 -1 -1 -0 5 7 6 8 11 12 10 10 10 11 11 12 12 12 10 10 12 14 17 18 17 18 17 15 14 13 15 17 19 21 17 16 15 14 18 16 15 16
-1 -1 -1 -0 -1 1 5 7 6 8 11 11 10 10 11 9 10 12 12 12 13 11 13 16 17 18 15 19 19 19 18 17 18 16 18 16 17 16 15 18 18 16 15 15
-1 -1 -1 -1 0 1 4 7 6 7 10 11 11 9 10 11 10 12 12 13 13 13 15 15 16 17 16 17 17 17 18 18 18 17 18 19 17 16 16 16 15 15 15 14
-1 -0 -0 0 1 2 4 8 6 6 9 10 9 9 9 10 9 11 12 13 13 12 13 14 15 17 17 18 20 17 19 16 16 16 16 16 16 15 14 14 14 14 14 13
-0 -1 -0 0 1 2 4 7 7 7 10 10 10 11 10 9 9 9 10 11 12 13 12 13 15 17 16 19 19 18 17 17 17 17 16 16 15 14 13 13 13 12 12 12
-0 -1 -0 1 2 3 4 7 6 7 9 12 13 9 11 9 9 10 10 11 11 12 12 14 15 17 16 18 18 18 16 17 17 17 16 16 15 14 13 12 12 12 11 12
0 0 2 2 2 4 6 7 7 7 9 13 13 11 11 10 10 11 11 11 12 13 14 15 16 15 16 17 17 18 16 16 17 17 15 15 14 12 12 13 12 12 12 12
2 2 3 2 3 5 8 11 8 8 7 11 15 11 12 11 11 11 12 12 13 13 14 14 15 14 15 18 19 15 15 15 15 15 14 13 12 12 11 12 12 11 11 11
2 3 3 4 5 6 9 11 8 7 7 11 15 15 13 12 12 12 12 12 13 13 14 14 15 15 14 17 19 16 15 14 14 13 13 14 12 13 11 11 11 11 11 10
3 3 4 4 5 6 9 8 7 8 10 11 16 16 15 13 14 15 13 14 13 14 14 14 15 15 15 19 15 15 14 13 13 13 13 13 12 12 12 11 11 11 11 10
4 4 5 6 8 10 9 7 8 9 10 15 15 17 18 13 14 14 14 13 16 14 16 15 15 16 18 16 15 14 14 14 14 13 13 13 13 12 12 11 11 11 11 11
5 7 10 12 10 8 8 12 12 13 14 13 15 14 16 14 15 15 15 15 16 19 16 14 16 16 13 13 12 13 14 14 13 15 14 13 13 12 12 12 11 12 12 12
9 11 12 10 10 11 15 17 17 18 17 14 15 15 16 13 16 16 15 17 17 20 18 17 18 17 15 14 13 13 12 12 13 13 12 12 12 12 13 13 12 12 12 12
9 10 11 13 16 18 18 22 19 18 18 16 16 16 15 14 13 15 15 18 17 21 16 17 19 15 13 13 13 13 12 13 13 12 13 12 12 12 13 13 13 13 12 12
11 15 18 17 20 21 21 24 21 19 17 16 16 16 15 14 15 16 16 19 18 15 18 19 17 14 12 13 13 12 12 12 13 12 12 12 13 12 13 14 13 13 13 12
17 19 23 22 22 21 20 19 18 16 15 15 15 16 14 15 17 18 19 17 17 20 22 19 15 13 13 12 12 12 13 13 13 13 13 14 14 14 13 13 13 13 13 12
19 19 22 21 19 21 20 21 17 15 13 13 14 15 14 17 18 18 18 20 21 20 19 15 13 12 13 13 13 13 13 13 14 14 14 15 15 15 14 13 12 12 12 11
18 20 19 17 17 17 18 17 15 14 13 13 14 18 18 18 18 19 19 21 21 17 15 12 12 13 13 13 13 13 13 14 14 15 15 15 16 15 14 13 13 12 11 10
19 18 15 16 17 16 16 16 15 15 12 14 16 18 18 19 20 20 18 18 15 13 13 12 12 13 13 13 13 14 14 14 15 15 16 16 15 14 14 14 12 11 10 8

GFSNW_con_lsi_225.txt.gz
Lid_Strength_Index
1 1 0 1 1 2 3 6 9 5 5 12 12 14 12 10 10 9 11 11 10 11 11 13 13 13 11 10 10 12 11 12 15 14 12 11 12 13 13 17 18 16 17 16
2 1 1 0 1 1 4 7 8 5 6 13 13 12 12 11 11 11 12 12 10 10 12 14 11 11 9 10 10 11 10 13 16 15 14 13 14 13 13 13 14 17 18 17
1 1 0 0 0 1 2 8 12 9 8 9 11 12 11 12 9 9 9 10 10 11 12 10 12 12 10 9 10 10 10 12 14 16 14 13 15 14 13 14 17 16 16 15
1 1 0 -0 0 1 2 7 9 9 13 12 11 10 10 12 11 10 9 11 11 12 13 12 13 11 10 9 9 9 10 14 13 13 12 12 13 14 14 15 14 16 14 14
1 1 0 0 0 1 4 8 8 8 9 9 11 11 12 12 10 10 11 11 10 10 12 11 12 11 11 12 10 11 11 14 12 14 12 12 14 13 13 13 13 13 13 13
2 2 1 0 0 2 6 5 6 7 9 10 11 12 11 11 9 10 9 10 10 10 10 8 8 9 10 10 11 12 12 13 14 16 13 14 16 14 14 13 12 12 15 12
2 2 2 1 1 2 3 6 6 9 11 10 11 10 9 10 10 11 10 9 10 9 7 8 9 10 11 11 11 10 12 13 13 16 16 20 14 13 12 13 14 15 14 13
2 2 2 1 0 1 2 5 6 8 11 10 11 10 9 9 9 9 10 10 9 7 9 11 13 14 14 13 11 11 11 12 15 17 17 15 15 14 15 15 16 15 15 13
2 2 2 1 0 -0 2 6 5 7 10 11 9 10 10 11 11 11 11 11 8 9 10 12 15 16 15 15 15 11 12 12 14 15 19 20 16 15 14 13 17 16 14 15
2 2 1 1 0 -1 1 6 5 5 10 9 8 10 11 8 9 10 11 11 11 10 11 13 14 15 13 16 17 17 16 16 17 16 17 15 14 15 14 18 17 15 14 14
1 1 0 -0 -1 -1 0 7 6 5 9 10 10 8 9 9 8 10 10 11 11 12 12 12 13 14 14 15 14 15 16 17 17 16 18 19 15 15 16 15 14 14 14 14
-1 -1 -1 -1 -1 -1 2 8 6 5 8 10 8 8 8 9 7 7 9 10 10 9 11 11 12 15 14 15 17 13 16 14 15 15 16 16 14 15 14 13 14 14 14 13
-1 -1 -1 -1 -1 1 4 7 6 7 9 10 10 10 9 7 8 7 9 9 9 9 9 10 12 14 13 16 16 15 15 14 15 15 15 16 14 13 13 13 13 13 13 13
-1 -1 -1 -0 1 2 4 6 6 5 8 11 11 8 9 8 8 8 6 8 8 9 9 11 12 14 13 14 16 16 15 15 15 15 15 14 14 13 13 13 13 13 12 12
-1 -1 -0 1 2 3 5 6 6 6 7 11 12 9 9 8 8 8 8 8 9 10 12 13 14 13 14 15 16 16 15 15 17 16 14 14 14 13 13 13 13 12 12 12
1 2 2 2 2 4 6 9 5 5 5 10 14 11 11 10 9 9 10 10 10 10 11 12 13 13 14 16 17 14 13 13 14 14 13 13 13 12 12 12 12 11 11 11
1 2 3 4 5 6 8 9 7 6 5 9 14 14 12 10 10 10 11 10 11 11 12 14 14 14 13 15 18 14 13 13 13 13 13 14 13 13 11 11 11 11 11 11
3 3 4 4 5 6 9 8 6 7 8 8 14 15 14 11 13 13 11 12 12 12 13 13 14 14 14 18 14 14 13 13 13 13 13 13 12 12 12 11 11 12 12 11
3 4 4 5 7 9 9 7 7 6 8 12 13 16 17 12 13 12 12 12 15 13 15 14 14 16 18 15 15 14 13 14 14 13 12 12 13 12 12 12 12 12 12 11
5 6 8 11 10 7 7 9 10 11 11 10 14 13 16 13 14 14 14 13 15 18 15 13 16 17 14 13 13 13 13 13 13 15 15 13 14 13 12 12 12 11 11 10
7 9 11 10 9 10 12 15 14 15 15 13 14 13 15 12 15 15 14 16 15 20 17 17 18 17 14 13 13 13 12 12 13 12 12 12 13 13 13 12 11 11 11 11
8 9 10 11 13 14 16 19 17 16 17 15 15 14 13 13 12 14 15 17 17 20 14 17 19 15 13 13 13 12 12 12 13 12 13 13 12 12 12 12 12 12 11 11
9 11 15 13 16 19 19 21 19 18 15 15 15 15 13 13 12 15 15 18 18 14 18 19 15 13 12 12 12 12 12 12 13 13 12 12 12 11 12 13 12 12 12 12
13 14 20 18 18 18 17 16 15 15 13 13 12 14 13 13 15 15 18 16 16 19 21 19 14 13 12 12 12 12 13 13 13 13 13 13 13 13 12 13 13 13 13 12
15 14 19 18 17 17 17 16 14 13 12 12 12 13 12 14 17 15 16 19 20 18 18 14 12 12 12 12 12 12 12 13 13 13 13 13 14 14 14 13 13 13 12 12
14 15 16 15 14 15 14 13 13 12 11 11 11 14 15 16 15 17 18 18 19 16 13 11 11 12 12 12 12 12 12 13 13 13 13 13 14 15 15 14 13 13 12 12
14 15 13 13 12 13 13 12 12 12 11 13 13 16 16 16 17 18 15 16 13 12 11 11 11 12 12 13 13 13 12 12 13 14 14 14 14 15 15 15 13 12 11 10

GFSNW_con_lsi_228.txt.gz
Lid_Strength_Index
4 4 4 2 3 3 3 6 9 6 5 11 11 13 11 9 9 8 11 10 10 11 11 12 12 12 11 10 10 12 11 13 17 14 12 11 13 14 14 19 19 18 19 19
5 4 3 2 3 3 5 8 9 5 7 14 14 11 11 10 11 11 11 11 9 9 11 13 12 11 10 9 11 12 11 14 18 16 14 14 15 13 13 14 15 18 19 19
4 4 3 2 2 2 3 8 13 10 9 10 11 12 12 12 9 9 9 10 9 10 11 10 12 11 9 10 10 8 9 13 15 18 16 14 16 14 13 13 17 17 16 16
3 3 3 2 2 1 4 7 10 10 14 12 11 10 10 11 11 10 9 10 10 11 13 12 12 11 10 9 8 10 11 16 14 14 13 13 13 13 13 14 14 16 16 15
2 3 3 1 1 1 5 8 9 8 8 9 11 11 11 11 10 10 11 11 10 10 12 11 12 11 11 11 10 10 10 15 14 15 13 13 14 13 12 13 13 14 14 15
2 1 2 2 1 1 6 5 5 6 8 10 11 12 11 11 9 9 9 9 10 11 10 8 8 8 9 10 11 11 12 13 16 18 15 14 16 14 13 13 12 13 15 13
1 1 1 1 1 1 3 6 6 8 12 10 11 10 10 11 10 11 9 9 10 10 8 8 9 10 10 11 12 10 12 13 14 18 16 20 15 12 12 12 13 14 14 13
2 1 1 1 1 1 3 4 6 9 12 10 10 11 11 11 10 10 9 9 9 8 9 12 13 15 14 13 11 12 10 12 15 17 17 15 15 15 15 16 17 16 16 14
1 1 1 1 1 1 3 4 4 7 10 11 9 11 10 12 11 12 11 11 9 8 10 12 16 17 16 16 16 11 10 11 13 15 18 20 17 16 14 14 19 15 14 15
1 1 1 1 1 1 2 4 4 6 9 8 9 11 11 9 10 12 12 11 11 10 12 13 15 16 13 17 17 17 16 15 16 16 17 15 16 15 14 19 19 15 15 15
0 1 1 1 1 1 1 4 5 4 8 9 9 8 9 9 9 11 11 12 12 12 13 13 13 14 13 16 14 15 16 17 18 16 18 19 15 15 16 16 15 15 15 15
-1 -1 0 0 -0 -1 -1 7 6 5 7 10 8 9 8 9 9 8 10 10 11 10 12 11 11 13 14 15 17 13 16 14 16 15 16 15 14 15 14 14 15 15 15 14
-1 -1 -1 -1 -1 -1 -0 6 6 7 9 10 10 10 8 7 7 7 10 10 9 10 11 10 11 14 13 17 16 15 15 14 16 15 15 15 15 14 14 14 14 14 14 14
-1 -1 -1 -1 -1 -1 2 5 5 5 7 10 11 8 9 7 7 7 6 9 9 9 9 11 11 13 13 16 16 17 16 16 16 15 14 15 15 14 14 14 13 14 14 13
-1 -1 -1 -1 -1 2 4 6 6 5 7 11 12 9 9 8 9 9 7 7 9 10 11 12 13 12 14 15 16 18 16 16 17 18 15 16 17 13 14 14 14 14 14 14
-1 -1 -1 -0 2 2 5 9 6 6 6 10 14 11 12 10 8 9 10 10 10 10 11 12 12 13 14 16 19 16 15 14 15 16 15 15 15 14 13 14 13 13 13 13
-1 1 1 2 4 6 8 8 7 4 4 10 14 14 12 11 11 11 12 11 12 12 12 13 14 15 14 15 19 17 15 13 14 15 15 16 14 15 13 13 13 12 13 13
3 3 4 4 5 6 9 7 5 5 8 9 13 15 14 12 13 14 12 13 12 13 13 15 16 16 16 19 16 15 14 14 14 14 14 14 14 14 14 14 13 14 14 14
3 4 4 6 8 10 10 7 6 6 8 13 14 17 17 13 13 13 13 12 17 14 18 16 15 18 20 16 16 15 14 15 15 14 14 14 15 15 14 14 14 15 15 14
4 6 9 11 10 7 7 10 10 11 11 12 14 13 17 14 15 15 15 15 16 22 17 15 19 18 14 14 15 15 15 15 15 18 16 15 16 15 15 15 14 14 14 13
8 10 12 10 8 10 12 17 17 17 19 14 15 15 17 13 16 16 14 18 18 25 18 19 20 18 18 18 17 17 16 16 16 16 15 15 15 16 15 15 14 13 13 13
8 10 10 11 13 16 20 22 18 17 17 15 16 15 14 14 13 16 15 19 20 25 17 22 22 19 16 18 19 17 16 17 16 15 17 16 14 15 15 15 14 14 13 12
9 12 16 16 19 22 22 24 21 20 17 17 17 18 16 16 15 18 18 25 23 17 24 23 21 16 16 19 18 16 15 17 16 15 14 15 15 14 15 15 14 13 13 12
15 19 23 21 22 20 20 19 18 16 15 16 16 18 17 17 20 19 25 19 19 26 28 26 21 18 17 16 15 16 17 17 16 16 15 15 15 15 14 13 13 13 14 13
19 19 25 24 20 20 21 19 17 14 15 15 17 17 16 19 24 21 21 25 28 25 24 20 17 15 16 15 14 16 16 18 18 17 16 16 15 15 15 13 14 14 14 13
18 19 21 17 18 17 15 14 16 14 15 14 14 20 23 22 22 24 25 25 26 21 18 15 15 14 15 15 14 14 16 17 17 18 16 15 15 15 15 14 15 15 14 14
20 17 14 15 15 15 15 13 15 15 15 19 19 24 22 22 24 24 19 23 19 17 15 14 14 16 16 16 14 13 14 14 16 18 16 15 15 16 16 17 15 14 13 12

GFSNW_con_lsi_234.txt.gz
Lid_Strength_Index
4 5 5 4 4 3 5 7 11 7 7 12 12 13 12 10 10 10 11 11 11 11 11 12 12 13 12 11 11 14 12 15 18 16 13 13 14 14 15 19 20 20 20 19
4 4 4 4 4 4 6 9 11 7 8 15 15 13 13 12 12 11 12 12 11 10 11 14 12 12 11 10 11 12 12 15 19 17 16 14 15 14 14 15 16 18 20 17
4 4 5 5 4 4 7 11 15 12 11 11 13 14 14 13 11 12 11 12 11 11 12 10 12 12 10 10 10 8 8 13 16 18 17 15 16 15 14 14 18 17 17 15
5 4 4 4 4 4 6 10 14 14 16 14 13 12 13 14 14 12 11 12 12 12 13 13 13 11 10 9 9 9 10 15 15 13 13 13 14 15 14 14 14 16 15 15
5 5 4 4 4 3 6 10 12 11 14 12 13 13 14 14 12 12 13 12 11 11 12 12 13 11 11 13 11 10 10 15 14 16 14 14 15 14 13 13 13 13 13 14
5 5 4 4 3 2 6 6 7 10 13 13 14 14 13 13 11 11 10 11 11 11 10 9 8 8 8 9 10 11 12 13 15 17 16 16 19 15 14 13 12 12 15 12
5 4 3 3 3 3 5 5 6 9 14 12 13 13 11 12 11 12 11 10 12 10 7 7 8 12 11 9 9 9 13 13 14 17 17 21 16 15 13 14 13 12 11 11
4 4 2 1 1 1 4 3 6 8 12 11 12 12 12 11 10 10 10 10 9 7 8 11 12 13 13 12 10 11 10 12 15 17 17 16 15 15 15 15 15 13 13 13
2 1 1 0 0 -1 2 4 3 4 8 11 9 10 10 12 12 12 10 9 9 8 10 12 16 17 17 17 17 14 11 10 13 15 18 20 17 15 14 14 17 15 14 14
2 1 1 -0 -0 -1 0 3 2 4 8 8 8 9 10 8 10 11 10 10 10 9 12 14 15 15 14 17 18 17 15 15 15 15 17 15 13 14 13 17 16 15 15 15
1 1 0 0 -0 -1 -0 3 1 3 6 6 6 6 8 9 8 11 10 10 11 11 13 13 13 14 14 15 16 16 16 16 17 14 16 18 13 14 14 14 15 14 15 15
-1 -0 1 0 -1 -1 -1 3 2 2 5 7 7 8 7 5 5 7 9 9 11 9 11 12 12 13 15 16 18 15 16 13 15 14 15 15 14 13 13 13 14 15 14 13
-1 -1 -1 0 -0 -0 0 3 4 4 6 7 9 9 8 6 6 5 9 10 8 10 9 11 12 13 13 16 16 16 15 14 15 14 15 15 14 14 12 13 13 13 12 13
-1 -1 -1 -1 -1 -0 -0 3 3 3 6 9 10 7 8 6 7 6 6 7 9 8 9 11 12 12 12 16 15 16 15 14 15 15 15 15 15 13 13 13 13 13 13 13
-1 -1 -1 -2 -2 -1 -0 3 3 2 5 10 13 10 10 9 8 7 7 8 9 10 11 12 13 12 14 15 16 19 16 15 16 15 13 13 15 14 13 14 14 14 14 14
-1 -1 -1 -1 -1 -1 2 6 4 1 2 9 13 10 12 10 9 8 8 8 9 9 11 11 11 12 13 15 18 15 15 15 13 14 14 15 15 14 14 14 14 13 14 13
-1 -1 -1 -1 -1 0 4 5 5 2 3 9 14 13 11 9 9 10 10 10 10 10 10 11 13 14 12 14 19 15 15 14 14 13 14 16 16 16 14 14 13 12 13 13
-1 -1 -1 -1 -1 2 6 5 2 3 6 8 15 15 13 10 13 14 11 12 11 11 11 13 14 14 13 18 16 15 15 15 15 15 14 14 15 14 14 14 14 15 15 15
-1 -1 0 4 5 7 8 3 4 5 7 12 13 17 19 12 12 13 12 11 15 12 15 14 14 16 20 16 15 15 15 15 15 15 15 15 16 16 16 16 16 17 16 15
-1 4 7 10 8 3 4 7 10 9 10 10 14 13 16 13 14 13 14 13 15 18 17 15 16 18 14 14 14 15 16 15 15 18 17 16 16 16 17 17 16 16 16 15
8 10 11 8 5 8 11 15 14 14 15 13 14 14 16 12 15 15 13 16 17 23 20 19 22 20 17 19 22 19 18 17 17 16 16 16 17 18 18 17 16 16 16 15
8 9 9 10 12 15 17 19 16 17 17 16 16 15 14 14 12 15 15 18 19 25 21 25 25 20 16 20 22 20 19 18 17 17 19 18 17 17 18 17 17 16 15 14
11 13 15 15 18 20 20 24 24 20 18 17 18 18 17 16 15 17 17 21 21 18 26 26 22 18 18 23 22 19 19 20 19 18 17 17 17 15 18 18 16 16 17 16
17 19 21 21 24 24 22 20 19 16 16 16 16 17 17 17 19 19 22 20 21 30 32 26 24 22 20 21 19 19 19 19 19 18 16 16 16 17 16 16 16 16 16 15
21 21 24 25 20 21 21 20 17 16 16 16 18 19 18 22 24 24 23 27 31 29 27 23 20 17 19 17 16 18 19 20 21 20 19 18 18 18 17 16 16 16 16 15
21 21 24 18 21 18 16 15 18 17 19 17 19 27 27 26 26 28 29 29 30 24 22 18 18 16 16 15 14 14 17 18 18 19 18 17 19 19 17 17 17 16 16 16
25 20 15 19 21 21 18 20 17 17 19 23 25 27 26 25 28 28 24 26 22 19 17 17 17 18 19 17 16 15 15 16 17 21 19 18 18 22 21 19 17 16 15 15

GFSNW_con_lsi_240.txt.gz
Lid_Strength_Index
6 6 6 5 5 4 5 7 13 8 7 12 11 13 12 10 10 9 11 11 11 12 13 13 13 13 12 13 13 16 15 18 20 18 16 16 16 17 16 16 20 20 21 21
5 6 6 5 5 5 7 10 11 8 8 15 14 13 12 11 11 11 11 11 11 11 12 14 12 12 11 12 13 14 14 17 19 19 18 17 17 16 16 16 16 18 21 18
6 6 6 6 6 5 7 11 15 12 11 11 13 13 14 13 11 11 10 11 11 11 12 11 13 13 12 13 13 9 10 15 17 18 18 17 18 17 15 14 17 16 16 15
6 6 5 5 5 5 8 10 14 13 16 14 13 13 13 14 13 11 11 12 12 12 14 13 13 12 12 11 10 11 11 15 15 16 16 15 16 15 15 15 15 16 14 15
6 6 6 6 5 5 9 13 13 13 15 14 14 13 14 14 14 13 14 14 13 13 14 13 15 13 14 14 12 11 11 15 16 18 15 14 15 14 14 14 13 13 13 13
6 6 6 6 6 6 10 10 9 11 13 15 16 15 15 15 13 13 11 12 13 15 13 11 10 10 10 10 12 12 13 13 16 18 16 16 18 16 14 13 11 12 14 11
5 5 5 6 6 6 8 9 10 12 16 14 15 14 14 14 14 14 13 12 12 12 9 10 10 12 12 12 11 10 12 12 14 18 17 21 17 15 13 12 11 11 12 12
5 5 5 5 5 5 8 7 9 12 15 14 14 14 14 14 13 12 12 11 10 9 10 13 15 16 15 15 12 11 10 12 15 17 19 16 14 14 14 14 15 13 12 13
2 3 4 3 4 4 6 8 7 8 13 15 12 12 12 14 15 14 12 10 9 8 10 13 17 18 17 16 16 13 10 10 13 15 18 19 17 15 14 13 17 14 14 14
1 1 1 2 2 3 4 7 5 7 11 9 10 11 12 10 11 11 11 10 10 8 11 13 15 16 13 16 17 16 14 13 15 15 17 15 11 13 13 16 16 15 14 14
-0 -0 1 1 0 1 2 4 3 5 8 8 7 7 8 8 8 10 9 9 10 11 12 13 13 14 14 14 14 16 15 15 16 14 17 18 13 13 14 12 15 14 14 14
-0 -0 -1 -1 -1 -1 0 4 2 1 4 7 6 4 3 4 5 6 8 9 10 9 11 11 11 13 13 14 16 14 15 13 15 13 14 13 12 12 12 13 13 14 13 13
-1 -1 -1 -0 -1 -1 -1 3 3 3 7 7 8 7 5 5 5 3 8 9 7 8 8 10 11 12 12 15 15 16 15 13 14 13 13 13 13 13 13 13 13 13 13 13
-2 -2 -1 -1 -1 -1 -1 2 2 4 6 9 9 7 7 6 6 5 4 6 7 7 8 10 11 12 10 12 13 13 13 14 14 15 14 14 14 13 12 13 12 13 13 13
-2 -2 -2 -2 -1 -1 -1 1 2 2 6 9 10 9 8 8 7 6 5 6 9 9 10 10 12 10 11 14 14 17 15 14 15 15 12 11 13 13 13 13 13 13 13 14
-2 -2 -1 -1 -2 -1 1 6 3 1 3 7 11 9 10 9 7 7 7 7 8 8 9 10 10 11 10 14 15 13 14 14 12 12 14 13 15 15 14 13 13 13 13 13
-1 -1 -1 -1 -2 0 4 6 5 0 1 7 10 12 10 9 9 9 9 9 9 9 10 11 11 12 11 13 17 14 14 14 14 14 14 15 15 16 14 13 13 11 13 13
-1 -1 -1 -1 -1 -1 2 3 1 0 5 6 10 16 14 9 11 12 9 11 10 10 10 12 13 13 12 16 15 15 15 14 15 14 15 15 15 15 15 14 14 15 15 15
-0 -1 -1 0 3 5 5 0 1 3 4 9 13 17 18 10 12 11 11 10 14 11 14 14 13 15 17 15 15 15 15 15 15 15 16 16 16 16 16 16 16 16 16 15
-1 0 5 8 7 1 1 5 6 7 7 8 12 11 15 13 13 13 14 13 13 18 15 13 15 17 14 15 15 16 16 16 16 17 17 17 17 17 18 17 17 16 16 15
5 8 11 6 4 7 8 12 11 13 15 10 12 13 15 11 16 15 12 15 14 18 18 17 20 20 21 21 20 19 20 17 19 18 17 16 17 18 18 17 16 16 16 16
6 8 7 8 10 14 13 15 15 15 17 14 16 15 13 12 10 13 13 16 17 20 21 23 25 23 18 21 22 21 21 18 18 18 18 18 17 18 19 19 18 17 16 16
9 11 13 14 19 18 17 21 22 20 16 15 15 16 14 13 13 14 15 18 19 18 23 24 25 21 19 23 22 20 20 19 18 18 18 18 19 17 20 21 18 19 19 18
14 16 20 20 18 23 21 20 19 16 15 15 15 16 15 15 17 16 19 19 20 27 32 28 25 21 21 22 20 20 20 20 20 19 18 18 18 19 17 17 18 19 18 17
17 17 21 21 19 21 19 18 16 16 14 14 16 16 16 18 20 20 20 23 27 27 27 23 20 19 21 19 18 19 20 22 23 22 21 20 19 20 18 17 18 17 17 17
21 21 23 18 19 19 18 17 18 15 16 15 17 20 20 21 20 23 22 24 26 23 22 19 18 18 18 18 17 17 20 21 20 22 19 18 19 19 18 18 19 18 18 18
26 23 17 22 23 24 21 20 17 18 19 23 26 27 27 27 29 29 27 28 24 20 18 17 18 20 20 20 17 16 16 17 19 22 21 19 20 24 25 21 18 18 17 17